Sabinal — WDC2725 — position and weather

sailwx.info

Track history (hours):
 
Tides and Currents Weather Stations Pressure Air Temp Water Temp Dewpoint Dewpoint Depression Visibility Wind Speed Wind Dir Waves Ship Positions

Sabinal

Owner: Kirby Inland Marine, LP, Houston, TX. More information available from US FCC via Universal Licensing System and Coast Guard Vessel Documentation Center.

Last reported at 2018-Feb-20 17:46 UTC. Time now 2018-Feb-21 11:46 UTC.
Position N 29°44' W 095°03'.

Length 81 m; draft 3 m.

Type: . MMSI: 366996840.

Date/timePositionNaut miles runAvg speedWind from/ knotsBaromVisibWave heightAir tempDewpointWater temp
2018-Feb-20 17:46N 29°44' W 095°03'1 0.1
2018-Feb-20 07:53N 29°43' W 095°03'0 0.0
2018-Feb-20 07:26N 29°43' W 095°03'0 0.0
2018-Feb-20 02:07N 29°43' W 095°03'0 0.2
2018-Feb-20 01:59N 29°43' W 095°03'3 0.4
2018-Feb-19 18:36N 29°45' W 095°06'1 0.3
2018-Feb-19 14:12N 29°44' W 095°06'1 4.9
2018-Feb-19 13:57N 29°44' W 095°08'2 0.4
2018-Feb-19 10:22N 29°45' W 095°06'2 5.4
2018-Feb-19 10:00N 29°46' W 095°05'1 0.9
2018-Feb-19 08:51N 29°47' W 095°04'2 4.3
2018-Feb-19 08:30N 29°46' W 095°05'1 1.9
2018-Feb-19 08:00N 29°46' W 095°06'0 0.0
2018-Feb-19 07:29N 29°46' W 095°06'1 1.1
2018-Feb-19 07:00N 29°46' W 095°05'1 1.2
2018-Feb-19 06:30N 29°45' W 095°06'0 0.0
2018-Feb-19 06:00N 29°45' W 095°06'0 0.0
2018-Feb-19 05:30N 29°45' W 095°06'0 0.0
2018-Feb-19 04:54N 29°45' W 095°06'1 0.0
2018-Feb-18 16:14N 29°46' W 095°06'0 0.2
2018-Feb-18 13:21N 29°45' W 095°06'0 0.0
2018-Feb-18 02:57N 29°45' W 095°06'1 0.7
2018-Feb-18 01:35N 29°46' W 095°07'0 0.1
2018-Feb-18 01:28N 29°46' W 095°07'0 0.0
2018-Feb-18 00:56N 29°46' W 095°07'4 0.5
2018-Feb-17 17:34N 29°45' W 095°11'1 5.8
2018-Feb-17 17:22N 29°44' W 095°09'3 0.2
2018-Feb-17 00:41N 29°45' W 095°06'1 0.3
2018-Feb-16 22:49N 29°46' W 095°05'1 0.1
2018-Feb-16 17:44N 29°45' W 095°06'1 0.3
2018-Feb-16 15:31N 29°46' W 095°06'0 1.3
2018-Feb-16 15:26N 29°46' W 095°05'0 0.0
2018-Feb-16 08:17N 29°46' W 095°06'1 0.0
2018-Feb-15 03:57N 29°46' W 095°04'2 0.6
2018-Feb-15 00:38N 29°44' W 095°03'2 5.6
2018-Feb-15 00:16N 29°43' W 095°01'2 6.4
2018-Feb-15 00:00N 29°42' W 094°60'3 6.0
2018-Feb-14 23:29N 29°39' W 094°58'3 6.6
2018-Feb-14 23:00N 29°36' W 094°57'3 6.5
2018-Feb-14 22:30N 29°33' W 094°55'13 6.4
2018-Feb-14 20:31N 29°22' W 094°49'2 6.1
2018-Feb-14 20:11N 29°22' W 094°51'2 1.7
2018-Feb-14 19:00N 29°22' W 094°53'0 0.0
2018-Feb-14 16:42N 29°22' W 094°53'0 0.4
2018-Feb-14 16:30N 29°22' W 094°53'0 0.6
2018-Feb-14 15:59N 29°22' W 094°53'0 0.0
2018-Feb-14 15:19N 29°22' W 094°53'0 0.0
2018-Feb-14 14:37N 29°22' W 094°53'0 0.0
2018-Feb-14 13:04N 29°22' W 094°53'  
Track history (hours):
 
Tides and Currents Weather Stations Pressure Air Temp Water Temp Dewpoint Dewpoint Depression Visibility Wind Speed Wind Dir Waves Ship Positions

Sabinal

Owner: Kirby Inland Marine, LP, Houston, TX. More information available from US FCC via Universal Licensing System and Coast Guard Vessel Documentation Center.

Last reported at 2018-Feb-20 17:46 UTC. Time now 2018-Feb-21 11:46 UTC.
Position N 29°44' W 095°03'.

Length 81 m; draft 3 m.

Type: . MMSI: 366996840.

Date/timePositionNaut miles runAvg speedWind from/ knotsBaromVisibWave heightAir tempDewpointWater temp
2018-Feb-20 17:46N 29°44' W 095°03'1 0.1
2018-Feb-20 07:53N 29°43' W 095°03'0 0.0
2018-Feb-20 07:26N 29°43' W 095°03'0 0.0
2018-Feb-20 02:07N 29°43' W 095°03'0 0.2
2018-Feb-20 01:59N 29°43' W 095°03'3 0.4
2018-Feb-19 18:36N 29°45' W 095°06'1 0.3
2018-Feb-19 14:12N 29°44' W 095°06'1 4.9
2018-Feb-19 13:57N 29°44' W 095°08'2 0.4
2018-Feb-19 10:22N 29°45' W 095°06'2 5.4
2018-Feb-19 10:00N 29°46' W 095°05'1 0.9
2018-Feb-19 08:51N 29°47' W 095°04'2 4.3
2018-Feb-19 08:30N 29°46' W 095°05'1 1.9
2018-Feb-19 08:00N 29°46' W 095°06'0 0.0
2018-Feb-19 07:29N 29°46' W 095°06'1 1.1
2018-Feb-19 07:00N 29°46' W 095°05'1 1.2
2018-Feb-19 06:30N 29°45' W 095°06'0 0.0
2018-Feb-19 06:00N 29°45' W 095°06'0 0.0
2018-Feb-19 05:30N 29°45' W 095°06'0 0.0
2018-Feb-19 04:54N 29°45' W 095°06'1 0.0
2018-Feb-18 16:14N 29°46' W 095°06'0 0.2
2018-Feb-18 13:21N 29°45' W 095°06'0 0.0
2018-Feb-18 02:57N 29°45' W 095°06'1 0.7
2018-Feb-18 01:35N 29°46' W 095°07'0 0.1
2018-Feb-18 01:28N 29°46' W 095°07'0 0.0
2018-Feb-18 00:56N 29°46' W 095°07'4 0.5
2018-Feb-17 17:34N 29°45' W 095°11'1 5.8
2018-Feb-17 17:22N 29°44' W 095°09'3 0.2
2018-Feb-17 00:41N 29°45' W 095°06'1 0.3
2018-Feb-16 22:49N 29°46' W 095°05'1 0.1
2018-Feb-16 17:44N 29°45' W 095°06'1 0.3
2018-Feb-16 15:31N 29°46' W 095°06'0 1.3
2018-Feb-16 15:26N 29°46' W 095°05'0 0.0
2018-Feb-16 08:17N 29°46' W 095°06'1 0.0
2018-Feb-15 03:57N 29°46' W 095°04'2 0.6
2018-Feb-15 00:38N 29°44' W 095°03'2 5.6
2018-Feb-15 00:16N 29°43' W 095°01'2 6.4
2018-Feb-15 00:00N 29°42' W 094°60'3 6.0
2018-Feb-14 23:29N 29°39' W 094°58'3 6.6
2018-Feb-14 23:00N 29°36' W 094°57'3 6.5
2018-Feb-14 22:30N 29°33' W 094°55'13 6.4
2018-Feb-14 20:31N 29°22' W 094°49'2 6.1
2018-Feb-14 20:11N 29°22' W 094°51'2 1.7
2018-Feb-14 19:00N 29°22' W 094°53'0 0.0
2018-Feb-14 16:42N 29°22' W 094°53'0 0.4
2018-Feb-14 16:30N 29°22' W 094°53'0 0.6
2018-Feb-14 15:59N 29°22' W 094°53'0 0.0
2018-Feb-14 15:19N 29°22' W 094°53'0 0.0
2018-Feb-14 14:37N 29°22' W 094°53'0 0.0
2018-Feb-14 13:04N 29°22' W 094°53'  

Dump ship's entire track history